• In Deutschland
  • Länderverzeichnis
  • Für 7 Tage
  • Wassertemperatur
  • Satellitenkarten
  • Wetterkarte
  • Widgets
  • user-avatar
    Anmelden

    Stündliche Wetter Harper

    Heute, 24 September, Sonntag

    Zeit Temperatur Niederschläge Wind Luftdruck Luftfeuchtigkeit
    00:00 +25°C° 0 mm 2 m/S 761 mmHg 90%
    01:00 +25°C° 0 mm 2 m/S 761 mmHg 90%
    02:00 +25°C° 0 mm 2 m/S 760 mmHg 91%
    03:00 +25°C° 0 mm 2 m/S 760 mmHg 91%
    04:00 +24°C° 0 mm 2 m/S 760 mmHg 91%
    05:00 +24°C° 0 mm 2 m/S 761 mmHg 92%
    06:00 +26°C° 0 mm 2 m/S 761 mmHg 85%
    07:00 +27°C° 0 mm 1 m/S 761 mmHg 78%
    08:00 +29°C° 0 mm 1 m/S 761 mmHg 71%
    09:00 +30°C° 0 mm 2 m/S 761 mmHg 69%
    10:00 +30°C° 0 mm 2 m/S 761 mmHg 66%
    11:00 +31°C° 0 mm 2 m/S 761 mmHg 64%
    12:00 +31°C° 0 mm 2 m/S 760 mmHg 65%
    13:00 +31°C° 0 mm 2 m/S 760 mmHg 65%
    14:00 +31°C° 0 mm 3 m/S 759 mmHg 66%
    15:00 +30°C° 0 mm 3 m/S 759 mmHg 70%
    16:00 +29°C° 0 mm 3 m/S 759 mmHg 73%
    17:00 +28°C° 0 mm 3 m/S 759 mmHg 77%
    18:00 +27°C° 0 mm 3 m/S 759 mmHg 79%
    19:00 +27°C° 0 mm 3 m/S 760 mmHg 81%
    20:00 +26°C° 0 mm 2 m/S 760 mmHg 83%
    21:00 +26°C° 0 mm 2 m/S 760 mmHg 84%
    22:00 +26°C° 0 mm 2 m/S 760 mmHg 85%
    23:00 +26°C° 0 mm 2 m/S 760 mmHg 86%

    Morgen, 25 September, Montag

    Zeit Temperatur Niederschläge Wind Luftdruck Luftfeuchtigkeit
    00:00 +25°C° 0 mm 2 m/S 760 mmHg 87%
    01:00 +25°C° 0 mm 2 m/S 759 mmHg 87%
    02:00 +25°C° 0 mm 2 m/S 759 mmHg 88%
    03:00 +25°C° 0 mm 2 m/S 759 mmHg 88%
    04:00 +25°C° 0 mm 2 m/S 759 mmHg 88%
    05:00 +25°C° 0 mm 2 m/S 760 mmHg 88%
    06:00 +26°C° 0,1 mm 2 m/S 760 mmHg 83%
    07:00 +28°C° 0,1 mm 2 m/S 760 mmHg 78%
    08:00 +29°C° 0,1 mm 2 m/S 761 mmHg 74%
    09:00 +29°C° 0 mm 2 m/S 761 mmHg 74%
    10:00 +29°C° 0 mm 2 m/S 761 mmHg 74%
    11:00 +29°C° 0 mm 3 m/S 761 mmHg 74%
    12:00 +29°C° 0 mm 3 m/S 760 mmHg 74%
    13:00 +29°C° 0 mm 3 m/S 759 mmHg 73%
    14:00 +30°C° 0 mm 4 m/S 759 mmHg 73%
    15:00 +29°C° 0,1 mm 4 m/S 758 mmHg 76%
    16:00 +28°C° 0,1 mm 4 m/S 758 mmHg 79%
    17:00 +28°C° 0,1 mm 4 m/S 758 mmHg 82%
    18:00 +27°C° 0 mm 4 m/S 759 mmHg 83%
    19:00 +27°C° 0 mm 4 m/S 759 mmHg 85%
    20:00 +27°C° 0 mm 4 m/S 760 mmHg 86%
    21:00 +26°C° 0 mm 4 m/S 760 mmHg 87%
    22:00 +26°C° 0 mm 3 m/S 760 mmHg 88%
    23:00 +26°C° 0 mm 3 m/S 760 mmHg 88%

    übermorgen, 26 September, Dienstag

    Zeit Temperatur Niederschläge Wind Luftdruck Luftfeuchtigkeit
    00:00 +26°C° 0,1 mm 3 m/S 760 mmHg 89%
    01:00 +26°C° 0,1 mm 3 m/S 759 mmHg 89%
    02:00 +26°C° 0,1 mm 3 m/S 759 mmHg 90%
    03:00 +26°C° 0,1 mm 3 m/S 759 mmHg 90%
    04:00 +26°C° 0,1 mm 3 m/S 759 mmHg 90%
    05:00 +26°C° 0,1 mm 3 m/S 759 mmHg 91%
    06:00 +27°C° 0,2 mm 3 m/S 760 mmHg 88%
    07:00 +27°C° 0,2 mm 3 m/S 760 mmHg 85%
    08:00 +28°C° 0,2 mm 3 m/S 760 mmHg 81%
    09:00 +29°C° 0,8 mm 3 m/S 760 mmHg 80%
    10:00 +30°C° 0,8 mm 4 m/S 760 mmHg 78%
    11:00 +30°C° 0,8 mm 4 m/S 759 mmHg 76%
    12:00 +30°C° 0,5 mm 4 m/S 759 mmHg 76%
    13:00 +30°C° 0,5 mm 4 m/S 758 mmHg 77%
    14:00 +30°C° 0,5 mm 5 m/S 757 mmHg 77%
    15:00 +29°C° 0,1 mm 5 m/S 757 mmHg 80%
    16:00 +28°C° 0,1 mm 5 m/S 757 mmHg 82%
    17:00 +28°C° 0,1 mm 5 m/S 757 mmHg 85%
    18:00 +27°C° 0,1 mm 4 m/S 758 mmHg 86%
    19:00 +27°C° 0,1 mm 4 m/S 759 mmHg 88%
    20:00 +27°C° 0,1 mm 4 m/S 759 mmHg 89%
    21:00 +27°C° 0,1 mm 4 m/S 759 mmHg 90%
    22:00 +26°C° 0,1 mm 4 m/S 759 mmHg 91%
    23:00 +26°C° 0,1 mm 4 m/S 760 mmHg 91%

    27 September, Mittwoch

    Zeit Temperatur Niederschläge Wind Luftdruck Luftfeuchtigkeit
    00:00 +26°C° 0,2 mm 4 m/S 759 mmHg 92%
    01:00 +26°C° 0,2 mm 3 m/S 758 mmHg 92%
    02:00 +26°C° 0,2 mm 3 m/S 758 mmHg 93%
    03:00 +26°C° 0,3 mm 3 m/S 758 mmHg 93%
    04:00 +26°C° 0,3 mm 3 m/S 758 mmHg 93%
    05:00 +26°C° 0,3 mm 2 m/S 758 mmHg 94%
    06:00 +27°C° 0,9 mm 2 m/S 759 mmHg 90%
    07:00 +27°C° 0,9 mm 2 m/S 759 mmHg 87%
    08:00 +28°C° 0,9 mm 3 m/S 760 mmHg 83%
    09:00 +29°C° 0,6 mm 3 m/S 760 mmHg 81%
    10:00 +29°C° 0,6 mm 3 m/S 759 mmHg 79%
    11:00 +30°C° 0,6 mm 4 m/S 759 mmHg 77%
    12:00 +30°C° 0,5 mm 4 m/S 758 mmHg 79%
    13:00 +29°C° 0,5 mm 4 m/S 758 mmHg 80%
    14:00 +29°C° 0,5 mm 4 m/S 757 mmHg 82%
    15:00 +28°C° 0,3 mm 4 m/S 757 mmHg 84%
    16:00 +28°C° 0,3 mm 4 m/S 758 mmHg 86%
    17:00 +27°C° 0,3 mm 4 m/S 758 mmHg 88%
    18:00 +27°C° 0,2 mm 4 m/S 758 mmHg 90%
    19:00 +27°C° 0,2 mm 3 m/S 759 mmHg 91%
    20:00 +26°C° 0,2 mm 3 m/S 760 mmHg 92%
    21:00 +26°C° 0,1 mm 3 m/S 760 mmHg 92%
    22:00 +26°C° 0,1 mm 3 m/S 760 mmHg 93%
    23:00 +26°C° 0,1 mm 3 m/S 760 mmHg 93%

    28 September, Donnerstag

    Zeit Temperatur Niederschläge Wind Luftdruck Luftfeuchtigkeit
    00:00 +26°C° 0,3 mm 3 m/S 759 mmHg 93%
    01:00 +26°C° 0,3 mm 3 m/S 759 mmHg 93%
    02:00 +26°C° 0,3 mm 3 m/S 758 mmHg 94%
    03:00 +26°C° 0,4 mm 3 m/S 759 mmHg 94%
    04:00 +26°C° 0,4 mm 2 m/S 759 mmHg 94%
    05:00 +25°C° 0,4 mm 2 m/S 759 mmHg 94%
    06:00 +26°C° 0,7 mm 2 m/S 760 mmHg 90%
    07:00 +27°C° 0,7 mm 2 m/S 760 mmHg 87%
    08:00 +28°C° 0,7 mm 2 m/S 761 mmHg 83%
    09:00 +29°C° 0,8 mm 3 m/S 760 mmHg 82%
    10:00 +29°C° 0,8 mm 3 m/S 760 mmHg 82%
    11:00 +29°C° 0,8 mm 3 m/S 759 mmHg 81%
    12:00 +29°C° 0,7 mm 4 m/S 759 mmHg 81%
    13:00 +29°C° 0,7 mm 4 m/S 758 mmHg 81%
    14:00 +29°C° 0,7 mm 4 m/S 758 mmHg 82%
    15:00 +28°C° 0,4 mm 4 m/S 758 mmHg 84%
    16:00 +28°C° 0,4 mm 4 m/S 758 mmHg 87%
    17:00 +27°C° 0,4 mm 4 m/S 758 mmHg 90%
    18:00 +27°C° 0,2 mm 4 m/S 759 mmHg 91%
    19:00 +26°C° 0,2 mm 3 m/S 759 mmHg 92%
    20:00 +26°C° 0,2 mm 3 m/S 760 mmHg 93%
    21:00 +26°C° 0,1 mm 3 m/S 760 mmHg 93%
    22:00 +26°C° 0,1 mm 3 m/S 760 mmHg 93%
    23:00 +26°C° 0,1 mm 3 m/S 759 mmHg 93%

    29 September, Freitag

    Zeit Temperatur Niederschläge Wind Luftdruck Luftfeuchtigkeit
    00:00 +26°C° 0,1 mm 3 m/S 759 mmHg 93%
    01:00 +26°C° 0,1 mm 3 m/S 759 mmHg 94%
    02:00 +26°C° 0,1 mm 3 m/S 758 mmHg 94%
    03:00 +26°C° 0,4 mm 3 m/S 758 mmHg 94%
    04:00 +26°C° 0,4 mm 3 m/S 759 mmHg 93%
    05:00 +26°C° 0,4 mm 3 m/S 759 mmHg 93%
    06:00 +27°C° 0,8 mm 3 m/S 759 mmHg 90%
    07:00 +27°C° 0,8 mm 3 m/S 759 mmHg 87%
    08:00 +28°C° 0,8 mm 3 m/S 760 mmHg 84%
    09:00 +29°C° 1 mm 3 m/S 759 mmHg 83%
    10:00 +29°C° 1 mm 4 m/S 759 mmHg 82%
    11:00 +29°C° 1 mm 4 m/S 758 mmHg 81%
    12:00 +29°C° 0,8 mm 4 m/S 758 mmHg 82%
    13:00 +29°C° 0,8 mm 4 m/S 758 mmHg 84%
    14:00 +28°C° 0,8 mm 4 m/S 757 mmHg 85%
    15:00 +28°C° 0,2 mm 4 m/S 757 mmHg 87%
    16:00 +28°C° 0,2 mm 4 m/S 758 mmHg 88%
    17:00 +27°C° 0,2 mm 4 m/S 758 mmHg 89%
    18:00 +27°C° 0 mm 3 m/S 758 mmHg 90%
    19:00 +27°C° 0 mm 3 m/S 759 mmHg 91%
    20:00 +26°C° 0 mm 3 m/S 760 mmHg 92%
    21:00 +26°C° 0 mm 3 m/S 759 mmHg 92%
    22:00 +26°C° 0 mm 3 m/S 759 mmHg 92%
    23:00 +26°C° 0 mm 3 m/S 759 mmHg 93%
    Mehr zeigen